Other Public Products
Issued by NWS Grand Forks, ND

Home | Current Version | Previous Version | Text Only | Print | Product List | Glossary Off
Versions: 1 2 3 4 5 6 7 8 9 10 11 12 13 14 15 16 17 18 19 20 21 22 23 24 25 26 27 28 29 30 31 32 33 34 35 36 37 38 39 40 41 42 43 44 45 46 47 48 49 50

000
FPUS83 KFGF 240910
OPUFGF
PRAIRIE TO PINES WEATHER ROUNDUP
NATIONAL WEATHER SERVICE EASTERN NORTH DAKOTA/GRAND FORKS ND
400 AM CDT FRI OCT 24 2014

 **SATELLITE DATA USED TO AUGMENT SKY COVER AT AUTOMATED STATIONS**
 *****  WEATHER ACROSS EASTERN NORTH DAKOTA  *****

CITY           SKY/WX    TMP DP  RH WIND       PRES   REMARKS
GRAND FORKS    CLOUDY    45  37  73 SW5       29.74S
GRAND FORKS AF CLOUDY    53  37  56 W7        29.75S
GRAND CITY NWS   N/A     43 N/A N/A S6          N/A
BUXTON         NOT AVBL
DEVILS LAKE    CLOUDY    52  36  54 SW7       29.74S
FARGO          CLOUDY    50  42  74 S9        29.79F
WAHPETON ARPT  CLOUDY    43  36  75 SE5       29.83S
$$

 *****  WEATHER ACROSS CENTRAL AND WESTERN NORTH DAKOTA  *****

CITY           SKY/WX    TMP DP  RH WIND       PRES   REMARKS
JAMESTOWN      CLOUDY    41  36  82 CALM      29.79S
BISMARCK       CLOUDY    44  32  62 CALM      29.82R
MINOT          CLEAR     49  33  54 SW10      29.76R
MINOT AFB      PTCLDY    47  35  62 SW8       29.75R
GARRISON         N/A     44  38  79 W8        29.79R
WILLISTON      MOCLDY    43  35  73 S5        29.79S
DICKINSON      CLOUDY    48  33  56 W10       29.83R
HETTINGER      MOCLDY    45  29  53 NW3       29.88R
$$

 *****  OTHER OBSERVATIONS NORTHEAST NORTH DAKOTA  *****

CITY           SKY/WX    TMP DP  RH WIND       PRES   REMARKS
WALHALLA         N/A     54  37  54 SW6       29.70F
LANGDON        FAIR      45  37  76 SW12      29.73S
CAVALIER       FAIR      50  37  62 CALM      29.71S
GRAFTON        FAIR      50  39  66 SW10      29.72S
CANDO          FAIR      41  36  81 SW5       29.75F
FORT TOTTEN      N/A     48  32  54 S3        29.95S
ROLLA          FAIR      48  36  61 SW7       29.73F
RUGBY          FAIR      45  37  76 SW9       29.75S
 ***** THE ABOVE OBSERVATIONS ARE NON NWS ARE NOT QUALITY
        CONTROLLED AND MAY MIS-REPORT RAIN FOR SNOW...
$$

 *****  OTHER OBSERVATIONS SOUTHEAST NORTH DAKOTA *****

CITY           SKY/WX    TMP DP  RH WIND       PRES   REMARKS
COOPERSTOWN    NOT AVBL
VALLEY CITY    FAIR      39  39 100 SW6       29.80S
OAKES            N/A     41  41 100 S6        29.82F
GWINNER        SUNNY     48  45  87 SW9       29.82F
SHEYENNE NWR     N/A     44  42  91 SW5       29.95S
BUFFALO        NOT AVBL
WYNDMERE         N/A     43  43 100 S3          N/A
 ***** THE ABOVE OBSERVATIONS ARE NON NWS ARE NOT QUALITY
       CONTROLLED AND MAY MIS-REPORT RAIN FOR SNOW...
$$

  *****  WEATHER ACROSS NORTHERN MINNESOTA  *****

CITY           SKY/WX    TMP DP  RH WIND       PRES   REMARKS
FLAG ISLAND    CLOUDY    50  45  81 SE8       29.70F
WARROAD        CLOUDY    52  43  71 SW5       29.73S
ROSEAU         CLOUDY    52  43  71 SW6       29.72S
HALLOCK        CLOUDY    46  39  76 S7        29.71S
THF RVR FALLS  MOCLDY    48  39  71 S8        29.76F
HALSTAD          N/A     45  41  86 S9          N/A
FOSSTON        MOCLDY    50  43  76 S13       29.79F
BAUDETTE       CLOUDY    52  41  66 S6        29.74F
WASKISH        CLOUDY    55  43  62 CALM      29.77F
CROOKSTON      MOCLDY    46  41  81 S6        29.77S
$$
  *****  WEATHER ACROSS CENTRAL AND WEST MINNESOTA  *****

CITY           SKY/WX    TMP DP  RH WIND       PRES   REMARKS
BEMIDJI        MOCLDY    54  43  66 S7        29.80F
PARK RAPIDS    MOCLDY    49  41  74 SE6       29.84F
WADENA         MOCLDY    46  41  81 S3        29.84F
DETROIT LAKES  CLOUDY    52  45  76 SE5       29.84S
MOORHEAD       CLOUDY    48  45  87 S12       29.81F
FERGUS FALLS   CLOUDY    46  39  76 S6        29.85S
ELBOW LAKE     FAIR      46  42  86 SE7       29.84F
MORRIS MN      MOCLDY    45  43  93 SE7       29.84S
STAPLES        MOCLDY    48  41  76 CALM      29.86F
WHEATON        CLOUDY    43  39  87 CALM      29.85S
$$
  *****  WEATHER ELSEWHERE ACROSS MINNESOTA  *****

CITY           SKY/WX    TMP DP  RH WIND       PRES   REMARKS
DULUTH         CLOUDY    48  45  89 SW12      29.90F FOG
INTRNTL FALLS  CLOUDY    52  40  63 VRB3      29.78F
ELY            CLOUDY    48  45  87 SW5       29.86F
CLOQUET        CLOUDY    48  46  93 S9        29.91F FOG
BRAINERD       PTCLDY    47  40  76 S5        29.87F
HIBBING        CLOUDY    37  35  92 CALM      29.87F
ALEXANDRIA     MOCLDY    49  43  80 S6        29.87F
SAINT CLOUD    CLOUDY    50  41  71 SE7       29.89F
MINNEAPOLIS    PTCLDY    47  45  93 E7        29.94F
$$

  *****  WEATHER ACROSS SOUTH DAKOTA  *****

CITY           SKY/WX    TMP DP  RH WIND       PRES   REMARKS
SIOUX FALLS    MOCLDY    54  50  86 S9        29.85F
BROOKINGS      NOT AVBL
WATERTOWN      MOCLDY    45  43  93 S6        29.84F
HURON          CLOUDY    45  44  97 S5        29.83S
SISSETON         N/A     51  46  83 SW5       29.82S
ABERDEEN       MOCLDY    35  34  96 CALM      29.83F
MITCHELL       MOCLDY    50  49  96 SW6       29.84S
PIERRE         MOCLDY    44  35  70 SW7       29.86R
MOBRIDGE       MOCLDY    42  38  85 E5        29.82S
RAPID CITY     MOCLDY    49  31  49 W7        29.90F
$$

  *****  SOME WEATHER IN NEARBY STATES *****

CITY           SKY/WX    TMP DP  RH WIND       PRES   REMARKS
GLASGOW MT     CLOUDY    49  42  77 SE5       29.81R
GREAT FALLS MT CLEAR     47  36  65 SW15      29.91R
CHEYENNE WY    CLOUDY    51  28  41 W9        30.16S
SCOTTSBLUFF NE CLOUDY    45  38  76 CALM      30.01F
OMAHA NE       PTCLDY    55  52  89 SE8       29.97
DES MOINES IA  FOG       53  52  96 S6        30.02F VSB 1/8
DAVENPORT IA   CLOUDY    45  44  97 NW5       30.07R FOG
CHICAGO IL     CLOUDY    53  44  71 SW7       30.04S
EAU CLAIRE WI  CLOUDY    49  48  97 S5        30.00R FOG
LA CROSSE WI   FOG       51  50  96 SE7       30.01F VSB 1
$$

  *****  SOME NATIONAL WEATHER *****

CITY           SKY/WX    TMP DP  RH WIND       PRES   REMARKS
LA GUARDIA NY  CLOUDY    51  43  74 NW14      29.78R
RALEIGH NC     MOCLDY    48  40  73 CALM      30.02R
ATLANTA GA     CLOUDY    50  45  83 NW6       30.04R
NEW ORLEANS LA CLEAR     60  51  72 NE9       30.08R
OKLAHOMA CITY  PTCLDY    57  54  89 SE6       30.09S
ALBUQUERQUE NM CLEAR     54  37  52 SE7       30.28S
SALT LAKE CITY PTCLDY    49  40  71 CALM      30.11R
LOS ANGELES CA PTCLDY    66  66 100 CALM      29.97S FOG
BOISE ID       LGT RAIN  52  49  89 CALM      30.09S
SEATTLE WA     CLOUDY    49  46  90 SE10      30.03S
$$

*** WEATHER ACROSS MANITOBA...SASKATCHEWAN AND ONTARIO ***
                ***ONTARIO***

CITY           SKY/WX    TMP DP  RH WIND       PRES   REMARKS
GERALDTON      FOG       45  45 100 SW7       29.86F VSB 1
THUNDER BAY    CLOUDY    48  46  93 E5        29.90F
SIOUX LOOKOUT  PTCLDY    45  43  93 S7        29.76F
TORONTO        CLEAR     39  34  81 NW7       30.05R
BIG TROUT LK   CLOUDY    46  45  93 S7        29.68F
PICKLE LAKE    NOT AVBL
DRYDEN         CLOUDY    48  41  76 S10       29.75F
KENORA         MOCLDY    48  39  71 S7        29.72F
$$
                *** MANITOBA***

CITY           SKY/WX    TMP DP  RH WIND       PRES   REMARKS
BRANDON        PTCLDY    37  34  87 W6        29.69F
DAUPHIN        CLEAR     54  41  62 SW9       29.61S
ISLAND LAKE    CLOUDY    48  48 100 S6        29.63S
PILOT MOUND      N/A     41  32  70 SW7         N/A
THE PAS        FOG       43  43 100 S9        29.49F VSB 3/8
THOMPSON       DRZL/FOG  37  36  93 CALM      29.57  VSB 1
WINNIPEG       MOCLDY    48  37  66 SW9       29.68F
LYNN LAKE      FOG       36  36 100 SE7       29.50F VSB 1
CHURCHILL      LGT RAIN  37  37 100 E24G36    29.62F
GILLAM         FOG       39  39 100 SW6       29.56F VSB 3/4
$$
                ***SASKATCHEWAN***

CITY           SKY/WX    TMP DP  RH WIND       PRES   REMARKS
ESTEVAN        NOT AVBL
KINDERSLEY     PTCLDY    43  37  81 W5        29.60R
LLOYDMINSTER   PTCLDY    37  30  75 W12G17    29.57
PRINCE ALBERT  CLOUDY    39  37  93 SW5       29.52R
REGINA         MOCLDY    48  43  81 S10       29.67F



USA.gov is the U.S. government's official web portal to all federal, state and local government web resources and services.